{"data":{"norad_id":39624,"intl_designator":"2014-014A","name":"SJ-11-06","alt_names":[],"object_type":"PAYLOAD","status":"ACTIVE","operator":null,"country":"PRC","launch_date":"2014-03-31","launch_site_code":"JSC","launch_vehicle":null,"mission":null,"orbit_class":"UNKNOWN","rcs_meters":2.3567,"size_class":null,"mass_kg":null,"dimensions":null,"purposes":[],"wikipedia_slug":null,"has_3d_model":false,"image_url":null,"decayed_at":null,"tle_current":{"epoch":"2026-05-25T04:03:18.290016Z","epoch_age_seconds":60482,"freshness":"FRESH","line1":"1 39624U 14014A   26145.16896169  .00000439  00000+0  96703-4 0  9992","line2":"2 39624  97.9493 172.8048 0015216  61.5365 298.7368 14.61826895647334","mean_motion":14.61826895,"eccentricity":0.0015216,"inclination_deg":97.9493,"raan_deg":172.8048,"arg_perigee_deg":61.5365,"mean_anomaly_deg":298.7368,"bstar":9.6703e-5,"rev_number":64733,"period_min":98.506875535355,"perigee_km":676.53051448073,"apogee_km":698.03199531404,"semimajor_km":7065.4182548974,"source":"CELESTRAK","updated_at":"2026-05-25T13:37:55.434635Z"}}}